Location: Capvern
(43.1036°N, 0.3160°E)
Time: 04:32:48
(UTC+00:00)

Okean-O - Pass Details

Date: 16 October 2021
Orbit: 639 x 640 km, 98.2° (Epoch: 08 December)

Event Time Altitude Azimuth Distance (km) Brightness Sun altitude
Exits shadow 18:07:51 13° 106° (ESE) 1,858 4.4 -10.5°
Maximum altitude 18:10:30 21° 65° (ENE) 1,460 3.9 -11.0°
Drops below altitude 10° 18:13:46 10° 17° (NNE) 2,042 5.0 -11.6°
Sets 18:16:25 0° 1° (N) 2,956 6.0 -12.1°
